FW4441 Weather Reports


time (UTC)temp
F
wind
direction
speed
knots
gust
knots
rain 1hr
in
rain 24hr
in
rain mn
in
humidity
%
barometer
mb
20260906061529 53 314 0.0 0.0 0.00 0.00 0.00 91 1014.2
20260906060103 53 292 0.0 1.7 0.00 0.01 0.00 91 1014.4
20260906054531 53 292 0.0 1.7 0.00 0.01 0.00 91 1014.4
20260906053032 54 292 0.0 0.0 0.00 0.01 0.00 90 1014.4
20260906051529 54 292 0.0 0.0 0.00 0.01 0.00 90 1014.4
20260906050031 54 292 0.9 1.7 0.00 0.01 0.00 90 1014.4
20260906044532 54 292 0.0 0.0 0.00 0.01 0.00 89 1014.5
20260906043030 55 292 0.0 0.0 0.00 0.01 0.00 88 1014.5
20260906041532 55 292 0.0 1.7 0.00 0.01 0.00 88 1014.5
20260906040029 55 292 0.0 2.6 0.00 0.01 0.00 87 1014.4
20260906034531 55 272 0.0 1.7 0.00 0.01 0.00 86 1014.2
20260906031528 57 200 0.0 1.7 0.00 0.01 0.00 82 1013.8
20260906030030 59 157 0.9 2.6 0.00 0.01 0.00 80 1013.8
20260906023028 61 137 2.6 4.3 0.00 0.01 0.00 78 1013.7
20260906021532 62 162 2.6 5.2 0.00 0.01 0.00 75 1013.7
20260906020145 63 162 2.6 5.2 0.00 0.01 0.00 72 1013.6
20260906014529 63 158 1.7 4.3 0.00 0.01 0.00 70 1013.6
20260906013105 65 175 1.7 3.5 0.00 0.01 0.00 69 1013.7
20260906011531 67 164 1.7 5.2 0.00 0.01 0.00 68 1013.7
20260906010107 67 183 1.7 3.5 0.00 0.01 0.00 68 1013.9
20260906003032 66 169 3.5 7.0 0.00 0.01 0.00 75 1014.1
20260906001605 63 164 1.7 6.1 0.00 0.01 0.00 78 1014.3
20260906000031 62 147 2.6 6.1 0.00 0.01 0.00 77 1014.4
20260905233031 63 166 3.5 8.7 0.00 0.01 0.00 73 1014.1
20260905231528 65 176 2.6 7.0 0.00 0.01 0.00 70 1014.0
20260905230032 65 161 1.7 3.5 0.00 0.01 0.00 68 1014.0
20260905224530 66 311 0.0 2.6 0.00 0.01 0.00 68 1013.9
20260905223028 66 283 0.0 0.0 0.00 0.01 0.00 68 1013.9
20260905221532 68 258 0.0 3.5 0.00 0.01 0.00 66 1013.9
20260905220032 69 309 0.0 2.6 0.00 0.01 0.00 66 1014.0
20260905214532 67 213 0.9 2.6 0.00 0.01 0.00 69 1014.1
20260905211532 66 185 1.7 4.3 0.00 0.01 0.00 71 1014.4
20260905210028 66 187 2.6 4.3 0.00 0.01 0.00 70 1014.5
20260905204532 67 188 3.5 6.1 0.00 0.01 0.00 69 1014.5
20260905203105 69 171 2.6 5.2 0.00 0.01 0.00 67 1014.5
20260905201530 69 207 1.7 4.3 0.00 0.01 0.00 68 1014.5
20260905200030 69 318 0.9 4.3 0.00 0.01 0.00 68 1014.7
20260905194532 68 315 1.7 4.3 0.00 0.01 0.00 71 1014.8
20260905193030 69 300 0.9 5.2 0.00 0.01 0.00 71 1015.0
20260905191541 68 329 1.7 4.3 0.00 0.01 0.00 73 1015.1
20260905190033 68 263 0.9 5.2 0.00 0.01 0.00 78 1015.3
20260905184530 64 297 0.0 2.6 0.00 0.01 0.00 81 1015.6
20260905183031 65 331 1.7 5.2 0.00 0.01 0.00 84 1015.7
20260905181531 62 257 1.7 5.2 0.00 0.01 0.00 89 1016.0
20260905180032 60 251 0.9 2.6 0.00 0.01 0.00 94 1016.0
20260905173030 57 292 0.9 2.6 0.00 0.01 0.00 96 1016.0
20260905171529 56 301 0.9 4.3 0.00 0.01 0.00 96 1016.0
20260905164607 55 270 0.0 0.9 0.00 0.01 0.00 97 1016.0
20260905160031 54 254 0.0 2.6 0.00 0.01 0.00 97 1015.9
20260905154531 53 19 0.0 1.7 0.00 0.01 0.00 97 1015.9
20260905153028 52 22 0.9 3.5 0.00 0.01 0.00 97 1015.9
20260905151530 52 327 0.9 2.6 0.00 0.01 0.00 97 1015.9
20260905150031 52 215 0.9 1.7 0.00 0.01 0.00 97 1015.8
20260905144529 51 360 0.9 2.6 0.00 0.01 0.00 97 1015.7
20260905143030 51 43 1.7 3.5 0.00 0.01 0.00 97 1015.7
20260905140055 50 151 0.0 2.6 0.00 0.01 0.00 97 1015.5
20260905131531 50 118 0.0 0.0 0.00 0.02 0.00 96 1015.1
20260905130030 51 112 0.0 0.9 0.00 0.02 0.00 96 1015.0
20260905124532 51 112 0.0 0.9 0.00 0.02 0.00 96 1015.1
20260905123144 51 133 0.0 1.7 0.00 0.02 0.00 96 1015.2
20260905121529 51 131 1.7 4.3 0.00 0.02 0.00 96 1015.2
20260905120029 51 22 0.0 3.5 0.00 0.02 0.00 96 1015.0
20260905114646 51 22 3.5 6.1 0.00 0.02 0.00 96 1015.0
20260905113029 51 45 0.0 2.6 0.00 0.02 0.00 96 1015.0
20260905111531 51 45 0.0 0.0 0.00 0.02 0.00 96 1014.9
20260905110032 51 31 0.0 1.7 0.00 0.02 0.00 95 1014.8
20260905101531 52 165 0.0 1.7 0.00 0.02 0.00 95 1014.8
20260905100029 52 157 0.0 0.0 0.00 0.02 0.00 95 1014.8
20260905094530 52 157 0.0 1.7 0.00 0.02 0.00 94 1014.9
20260905091531 53 112 0.0 0.9 0.00 0.02 0.00 94 1014.8
20260905090030 52 112 0.0 1.7 0.00 0.02 0.00 94 1014.7
20260905084530 52 112 0.0 1.7 0.00 0.02 0.00 93 1014.7
20260905083030 52 151 0.0 1.7 0.00 0.02 0.00 93 1014.7
20260905081532 52 170 0.9 3.5 0.00 0.02 0.00 93 1014.5
20260905080032 52 98 0.0 1.7 0.00 0.02 0.00 92 1014.4
20260905073104 53 94 0.9 2.6 0.00 0.02 0.00 91 1014.2
20260905071533 53 145 1.7 3.5 0.00 0.02 0.00 91 1014.1
20260905070104 53 22 1.7 4.3 0.01 0.02 0.00 90 1013.9
20260905064531 53 25 2.6 4.3 0.01 0.02 0.02 89 1013.7
20260905063106 53 59 1.7 4.3 0.01 0.02 0.02 88 1013.7